CZ-6A DEB, 61385

Orbit data source: Space-Track

CZ-6A DEB, 61385 is space debris in LEO originally from a launch on Tue, 06 Aug 2024 UTC launched from the Taiyaun Space Center, China (TSC). Debris objects in space refer to the collection of defunct objects orbiting the Earth. Examples of debris include non-operational satellites, rocket bodies, and fragments generated from explosions, collisions, or faulty payload assembly.

Loading next visibility...
Identifier
61385, 2024-140XA
Orbit
LEO
Country
Flag of CNCN / PRC
Related business
Manufacturer
SAST
Mission
Spacecraft
Bus & Motor
Unknown
Mass
Unknown
Launch date (UTC)
2024-08-06 (2 years ago)
Launch vehicle
Unknown
Launch site
Taiyaun Space Center, China (TSC)
Object type
Payload
Rocket body
Debris
Shape & HBR
Unknown shape, 0.1 m
Radar Cross Section
Medium (>0.1 m² and <1 m²)

Expand to show TLE details & history
Last TLE update: 2 days ago

TLE from 2 days ago
0 CZ-6A DEB
1 61385U 24140XA  26170.19925896  .00046577  00000-0  30175-2 0  9996
2 61385  88.8457 253.8504 0070710 154.7526 205.7196 15.05854586 96560
Epoch: 2026-06-19T04:46Z
TLE epoch observation values (Epoch: 2026-06-19T04:46:55.974Z)
Latitude
-0.00003°
Longitude
-85.31449°
Altitude
596.262 km
Speed
7.537 km/s
True Right ascension
16h 55m 24s
True Declination
0° 00' 00"
Sunlit
Object was in full shadow at epoch
Visualization orbit readout
Latitude
Unknown
Longitude
Unknown
Altitude
Unknown
Speed
Unknown
Apparent Right ascension
Unknown
Apparent Declination
Unknown
Sunlit
N/A
Visualization observer readout
Local Sidereal Time
10:17:11
Azimuth
Unknown
Elevation
Unknown
Doppler factor
Unknown
Orbital elements
Apogee altitude
594.672 km
Perigee altitude
496.755 km
Semi-major axis
6,923.851 km
Eccentricity
0.00707
Inclination
88.8457°
RAAN
253.8504°
Arg. of periapsis
154.7526°
True anomaly
205.37075°
Mean anomaly
205.7196°
Eccentric anomaly
205.5449°
Mean motion
3.76723 °/min
Orbital period
95.56 mins
BSTAR
0.0030175
Loading maneuver chart data...
Computing Atmospheric mass density...
Loading historical data...
Loading historical data...
Loading historical data...
Loading historical data...
Loading historical data...
Loading historical data...
Loading historical data...

Documentation

Showing up to 5 results
|